Weather History for Guymon, OK

Change the Weather History Date:

Sunday, November 11, 2012

  Actual Average Record
Temperature  
Mean Temperature 38 °F 48 °F  
Max Temperature 48 °F 63 °F 86 °F (2005)
Min Temperature 27 °F 33 °F 17 °F (2014)
Degree Days  
Heating Degree Days 27 17  
Month to date heating degree days 90 168  
Since 1 July heating degree days 398 477  
Cooling Degree Days 0 0  
Month to date cooling degree days 0 0  
Year to date cooling degree days 1917 1481  
Moisture  
Dew Point 19 °F    
Average Humidity 52    
Maximum Humidity 76    
Minimum Humidity 28    
Precipitation  
Precipitation 0.00 in 0.02 in 0.04 in (2010)
Month to date precipitation T 0.23  
Year to date precipitation 10.79 18.36  
Snow  
Snow 0.00 in - - ()
Month to date snowfall 0.0  
Since 1 July snowfall 0.0  
Since 1 September snowfall 0.0  
Snow Depth 0.00 in    
Sea Level Pressure  
Sea Level Pressure 30.01 in    
Wind  
Wind Speed 10 mph (North)    
Max Wind Speed 24 mph    
Max Gust Speed 29 mph    
Visibility 10 miles    
Events      
T = Trace of Precipitation, MM = Missing Value Source: NWS Daily Summary

Daily Weather History Graph

Daily Weather History Graph

Search for Another Location

Airport:

Trip Planner

Search our weather history database for the weather conditions in past years. The results will help you decide how hot, cold, wet, or windy it might be!

Date:

Astronomy

Nov. 11, 2012 Rise Set
Actual Time 7:20 AM CST 5:39 PM CST
Civil Twilight 6:52 AM CST 6:06 PM CST
Nautical Twilight 6:21 AM CST 6:37 PM CST
Astronomical Twilight 5:51 AM CST 7:08 PM CST
Moon 4:39 AM CST (11/11) 4:01 PM CST (11/11)
Length of Visible Light 11h 13m
Length of Day
10h 19m
Waning Crescent, 7% of the Moon is Illuminated
Nov 11
Waning Crescent
Nov 13
New
Nov 20
First Quarter
Nov 28
Full
Dec 6
Last Quarter

Hourly Weather History & Observations

Time (CST) Temp. Windchill Dew Point Humidity Pressure Visibility Wind Dir Wind Speed Gust Speed Precip Events Conditions
12:53 AM 43.0 °F 40.3 °F 15.1 °F 32% 29.70 in 10.0 mi WSW 4.6 mph - N/A   Clear
1:53 AM 42.1 °F 37.7 °F 17.1 °F 37% 29.71 in 10.0 mi WSW 6.9 mph - N/A   Overcast
2:53 AM 42.1 °F 35.2 °F 30.9 °F 65% 29.73 in 10.0 mi North 12.7 mph - N/A   Overcast
3:53 AM 39.0 °F 33.4 °F 32.0 °F 76% 29.77 in 10.0 mi North 8.1 mph - N/A   Scattered Clouds
4:43 AM 37.4 °F 28.5 °F 30.2 °F 75% 29.84 in 10.0 mi North 15.0 mph 21.9 mph N/A   Overcast
4:53 AM 37.0 °F 26.7 °F 30.0 °F 76% 29.79 in 10.0 mi North 19.6 mph 23.0 mph N/A   Overcast
5:53 AM 34.0 °F 22.7 °F 26.1 °F 73% 29.83 in 10.0 mi North 19.6 mph - N/A   Overcast
6:53 AM 30.9 °F 18.4 °F 23.0 °F 72% 29.87 in 10.0 mi North 20.7 mph 28.8 mph N/A   Overcast
7:30 AM 28.4 °F 17.0 °F 21.2 °F 74% 29.94 in 10.0 mi North 15.0 mph - N/A   Scattered Clouds
7:53 AM 28.9 °F 17.7 °F 19.0 °F 67% 29.93 in 10.0 mi North 15.0 mph - N/A   Clear
8:53 AM 32.0 °F 20.8 °F 19.0 °F 59% 29.97 in 10.0 mi North 17.3 mph 23.0 mph N/A   Clear
9:21 AM 33.8 °F 22.8 °F 19.4 °F 56% 30.00 in 10.0 mi NNW 18.4 mph 24.2 mph N/A   Mostly Cloudy
9:53 AM 33.1 °F 21.9 °F 19.0 °F 56% 30.00 in 10.0 mi North 18.4 mph - N/A   Overcast
10:13 AM 33.8 °F 22.8 °F 19.4 °F 56% 30.02 in 10.0 mi North 18.4 mph - N/A   Overcast
10:53 AM 35.1 °F 24.5 °F 18.0 °F 50% 30.02 in 10.0 mi North 18.4 mph 25.3 mph N/A   Overcast
11:53 AM 36.0 °F 27.1 °F 16.0 °F 44% 30.03 in 10.0 mi North 13.8 mph - N/A   Partly Cloudy
12:53 PM 37.9 °F 31.5 °F 18.0 °F 45% 30.03 in 10.0 mi North 9.2 mph - N/A   Clear
1:53 PM 41.0 °F 34.3 °F 16.0 °F 36% 30.03 in 10.0 mi North 11.5 mph - N/A   Clear
2:53 PM 42.1 °F 36.1 °F 16.0 °F 35% 30.04 in 10.0 mi NNE 10.4 mph - N/A   Clear
3:53 PM 42.1 °F 35.7 °F 15.1 °F 34% 30.08 in 10.0 mi North 11.5 mph 17.3 mph N/A   Clear
4:53 PM 41.0 °F 35.2 °F 16.0 °F 36% 30.12 in 10.0 mi North 9.2 mph - N/A   Clear
5:53 PM 34.0 °F 28.0 °F 15.1 °F 46% 30.18 in 10.0 mi NNW 6.9 mph - N/A   Clear
6:53 PM 34.0 °F - 14.0 °F 44% 30.21 in 10.0 mi Calm Calm - N/A   Clear
7:53 PM 35.1 °F - 12.9 °F 40% 30.23 in 10.0 mi Calm Calm - N/A   Clear
8:53 PM 28.9 °F - 12.9 °F 51% 30.27 in 10.0 mi Calm Calm - N/A   Clear
9:53 PM 30.9 °F 27.5 °F 16.0 °F 54% 30.28 in 10.0 mi WSW 3.5 mph - N/A   Clear
10:53 PM 28.9 °F - 14.0 °F 54% 30.29 in 10.0 mi Calm Calm - N/A   Clear
11:53 PM 27.0 °F 20.5 °F 14.0 °F 58% 30.30 in 10.0 mi SW 5.8 mph - N/A   Clear